Simultaneous Nadir Overpasses (SNOs) Predictions

Prediction of SNOs between FY3D and AQUA Satellite Orbit:

Table of predicted SNOs for the next 14.0 days since TLE Epoch: 10/26/2019
Index Date (FY3D) Time (FY3D) Lat,Lon (FY3D) SZA (FY3D ) Date (AQUA) Time (AQUA) Lat,Lon (AQUA) SZA (AQUA ) Distance(km) Time Diff (sec)
1 10/26/2019 14:25:25 -68.19, 8.30 63.82 10/26/2019 14:26:04 -68.19, 8.33 63.88 1.40 39
2 10/26/2019 15:15:10 71.23,-179.86 113.26 10/26/2019 15:14:33 71.24,-179.81 113.28 1.98 37
3 10/29/2019 06:41:41 -68.72, 124.89 63.48 10/29/2019 06:42:23 -68.71, 124.85 63.52 1.70 42
4 10/29/2019 07:31:29 71.59, -63.34 113.76 10/29/2019 07:30:55 71.59, -63.36 113.81 1.09 34
5 10/31/2019 22:58:14 -68.34,-119.72 62.30 10/31/2019 22:58:58 -68.34,-119.73 62.36 0.36 44
6 10/31/2019 23:48:01 71.27, 51.99 114.90 10/31/2019 23:47:29 71.27, 52.01 114.93 0.68 32
7 11/03/2019 15:14:46 -68.01, -4.25 61.19 11/03/2019 15:15:32 -68.01, -4.24 61.26 0.56 46
8 11/03/2019 16:04:32 71.00, 167.42 115.98 11/03/2019 16:04:02 71.01, 167.47 116.00 1.99 30
9 11/06/2019 07:31:14 -67.83, 111.43 60.25 11/06/2019 07:32:02 -67.84, 111.45 60.32 1.03 48
10 11/06/2019 08:20:45 71.61, -75.62 116.17 11/06/2019 08:20:18 71.60, -75.69 116.22 2.41 27
11 11/08/2019 23:47:42 -67.71,-132.83 59.38 11/08/2019 23:48:32 -67.72,-132.81 59.46 1.10 50




NCC Satellite Simultaneous Nadir Overpasses (SNOs) Prediction Service
